Location: Koslow
(50.3020°N, 18.5663°E)
Time: 07:45:18
(UTC+00:00)

STARLINK-1357 - Pass Details

Date: 07 October 2020
Orbit: 548 x 551 km, 53.0° (Epoch: 31 October)

Event Time Altitude Azimuth Distance (km) Brightness Sun altitude
Exits shadow 03:47:10 15° 289° (WNW) 1,523 5.3 -11.7°
Maximum altitude 03:50:33 79° 204° (SSW) 567 3.6 -11.2°
Drops below altitude 10° 03:54:42 10° 118° (ESE) 1,826 7.2 -10.5°
Sets 03:56:56 0° 117° (ESE) 2,718 8.3 -10.2°
